Wind_Speed
12 13 13 13 14 14 15 15 15 16 16 16 16 15 16 16 15 15 16 17 18 20 21 21 21 22 24 22 19 18 17 17 18 18 20 23 20 21 20 17 17 16 18 17 13 14 9
12 12 12 12 13 13 14 15 15 15 16 17 17 17 17 18 18 17 17 17 17 17 18 18 18 20 22 25 24 23 21 20 18 20 22 25 28 27 26 23 21 21 19 16 14 13 12
11 11 11 13 14 14 15 17 19 20 21 21 21 20 21 22 22 22 22 22 22 20 20 20 18 18 20 22 24 26 26 25 23 21 23 25 31 29 27 26 27 23 21 19 16 18 13
16 17 18 20 20 20 21 22 23 23 23 22 23 22 22 23 24 25 26 27 27 26 25 25 25 24 22 23 22 23 27 29 27 26 24 28 29 34 32 28 29 24 23 22 21 20 15
21 24 25 26 26 26 26 25 25 24 24 24 25 25 23 22 25 27 29 29 30 31 30 28 28 29 29 27 27 27 25 27 33 31 30 29 31 31 35 33 34 30 21 22 23 23 20
25 26 27 27 28 27 27 27 27 28 30 28 28 27 26 25 25 27 28 28 29 31 33 35 33 32 33 34 33 33 32 30 31 36 37 34 29 31 31 35 35 29 24 24 24 24 25
27 28 29 30 30 31 30 30 30 30 31 31 31 32 31 29 28 29 29 31 30 30 31 35 36 38 38 38 38 39 36 37 36 36 38 39 35 24 27 29 30 32 31 31 28 28 28
31 31 31 31 30 31 30 30 31 31 31 32 34 35 37 35 35 36 36 35 35 34 33 33 35 38 41 44 43 44 45 44 42 40 40 40 39 30 32 35 34 34 34 35 34 33 32
34 35 36 35 35 36 35 35 33 34 35 35 32 33 34 34 35 36 36 36 37 38 38 40 37 36 37 40 42 45 46 47 48 47 45 43 35 41 38 37 38 37 35 36 37 39 36
36 37 36 35 35 36 37 36 36 35 36 35 33 35 35 35 36 37 37 38 39 42 39 39 36 32 36 38 41 42 44 47 48 50 51 51 43 45 47 43 40 42 33 36 39 42 40
39 37 37 37 35 35 36 35 35 36 38 39 37 38 37 39 37 38 37 37 36 37 38 37 32 28 27 35 39 39 44 44 48 51 56 55 48 49 50 45 45 37 42 40 42 46 46
41 39 38 38 39 39 39 37 38 39 38 38 38 37 36 36 36 34 34 33 32 33 32 31 29 27 29 29 30 35 37 42 44 49 55 58 55 55 55 51 50 42 47 46 48 51 60
40 41 43 42 41 41 41 39 39 42 37 37 38 37 34 35 34 32 32 27 30 29 28 27 28 30 31 31 33 33 36 36 40 44 48 57 58 60 61 55 56 52 53 52 53 59 60
43 42 42 42 42 42 42 41 41 41 38 37 37 34 34 32 30 25 26 27 26 25 29 29 30 32 32 34 37 38 40 42 42 40 39 48 55 65 64 61 60 57 57 59 58 57 55
46 45 44 43 41 40 40 40 37 35 33 29 30 32 30 28 25 24 23 21 24 28 33 36 35 36 36 38 40 42 43 44 46 46 46 40 52 59 64 65 62 60 64 56 57 55 56
50 48 47 46 43 41 40 36 33 28 25 27 28 29 25 22 15 14 18 23 31 34 33 34 35 39 43 44 46 48 47 47 48 48 50 49 44 56 59 66 65 61 61 65 61 61 63
46 43 41 41 40 37 31 26 22 23 25 27 27 18 11 13 17 21 26 32 35 36 36 37 40 43 46 46 47 47 46 47 48 48 48 50 49 49 56 60 63 65 67 68 64 62 64
46 45 41 38 35 33 28 24 21 24 23 20 11 11 13 18 24 26 28 31 33 35 38 42 43 44 42 41 43 43 42 44 45 46 46 49 52 51 55 53 59 66 67 66 69 68 66
43 39 38 37 35 35 33 30 24 26 21 15 14 17 21 23 23 25 29 30 31 32 35 38 40 40 40 39 40 39 40 38 40 41 44 45 51 54 45 48 51 64 69 69 70 72 72
39 34 32 33 33 32 31 29 25 21 18 15 17 23 18 18 20 26 29 29 28 27 28 32 35 38 37 33 33 35 34 35 36 38 39 42 45 52 53 48 55 59 67 67 70 72 71
33 34 36 36 34 33 31 28 25 18 16 18 21 16 14 20 26 28 28 28 27 26 29 35 34 28 23 25 27 30 32 34 34 35 35 38 43 49 54 52 55 60 67 71 72 71 73
36 35 37 37 33 31 29 26 22 20 18 15 14 14 17 23 25 26 27 22 21 26 34 34 28 23 24 24 24 27 30 31 35 35 37 35 39 47 54 54 56 59 65 71 72 73 74
34 37 37 35 31 29 27 25 22 18 18 17 16 16 20 23 27 31 31 36 29 30 32 29 22 22 20 20 19 20 25 31 35 37 33 35 39 45 47 49 56 58 60 66 72 72 72
33 33 34 31 28 32 28 23 21 20 18 18 17 18 21 24 29 34 39 43 36 33 28 23 18 14 11 9 17 25 31 33 33 32 32 33 29 36 34 46 55 49 57 63 68 68 69
36 31 31 28 32 30 25 22 21 19 21 23 20 20 25 28 31 39 44 47 35 28 18 12 11 12 14 19 19 20 19 22 23 24 26 22 27 31 35 41 51 45 59 63 70 66 66
36 31 28 28 33 25 20 18 18 19 21 21 22 27 28 31 38 43 47 47 28 19 19 21 20 21 17 14 14 18 13 14 13 23 26 26 22 35 33 39 39 47 56 58 67 63 59
31 29 29 26 28 26 22 19 18 19 25 26 26 29 31 33 40 44 50 47 25 27 26 24 26 22 18 15 12 9 6 7 12 12 23 22 30 36 35 43 35 36 54 57 58 60 57
27 28 25 27 22 23 24 20 21 24 25 27 28 30 31 32 39 44 48 42 31 27 25 23 27 20 20 20 19 13 9 9 11 1 16 23 34 33 32 41 36 40 56 59 56 59 57
24 28 21 23 23 21 20 20 20 24 26 28 30 32 32 31 37 41 43 37 26 28 19 22 26 27 25 23 17 16 15 19 25 22 21 21 25 29 23 33 38 32 54 59 57 56 52
Wind_Direction
313 309 306 305 303 302 300 300 300 300 300 300 297 296 293 289 288 288 288 283 279 273 272 271 267 259 258 258 262 261 262 257 250 229 219 215 210 205 208 210 210 204 210 220 213 191 198
323 321 319 320 320 319 318 315 312 307 305 303 302 299 295 293 290 287 287 283 279 277 278 275 272 267 258 257 255 257 256 257 254 241 226 216 216 210 211 208 208 209 206 208 193 207 217
350 343 340 336 330 324 321 319 317 313 309 307 305 299 300 297 295 292 290 287 283 279 277 275 276 275 269 263 257 252 252 252 252 248 236 229 221 218 216 216 215 208 198 182 178 177 188
338 332 325 321 317 312 310 310 311 311 307 304 304 302 300 297 293 292 289 285 285 282 278 276 272 269 268 267 266 262 253 251 250 250 246 233 228 222 223 220 222 216 205 199 190 178 188
326 323 320 316 313 309 305 304 305 306 306 302 298 296 294 294 294 292 290 287 286 285 282 280 276 273 268 264 263 264 260 255 249 246 245 242 234 227 225 227 228 219 208 206 204 195 197
321 321 321 318 315 311 307 307 305 303 300 298 292 289 290 289 288 288 286 285 285 281 279 277 277 273 269 265 261 260 262 258 256 248 244 242 239 235 230 228 236 235 220 216 215 210 201
322 319 315 312 310 307 304 301 299 297 296 294 292 289 286 281 286 285 284 283 282 281 279 275 271 269 267 265 263 259 257 257 255 254 250 245 239 238 238 233 233 233 223 223 223 217 204
316 314 311 309 307 306 303 299 296 294 294 295 293 289 287 283 285 287 287 286 281 282 282 281 272 265 262 260 259 255 252 252 253 253 251 248 242 232 231 227 223 226 220 223 223 221 213
312 311 309 307 305 304 304 303 300 296 297 296 293 290 290 294 296 296 294 293 289 289 286 280 278 271 265 260 257 253 248 246 245 245 247 247 243 233 230 230 225 224 217 220 222 227 219
316 313 311 309 304 302 301 302 303 303 305 300 296 295 298 299 300 300 301 299 298 296 291 286 280 280 271 264 258 254 249 244 241 239 238 240 235 234 229 226 227 225 217 216 222 228 228
320 315 311 309 306 302 302 300 302 305 306 301 297 301 298 300 301 302 301 298 296 291 286 287 280 270 267 265 261 253 252 245 242 236 236 238 231 233 233 228 228 223 223 216 217 225 228
320 315 313 312 309 306 307 310 310 310 308 304 301 301 300 300 299 297 294 290 285 280 279 281 279 270 269 266 265 260 257 250 247 239 233 231 225 226 230 222 226 218 223 219 216 218 224
323 318 317 314 310 306 305 303 308 308 307 305 301 300 298 298 298 293 286 278 276 275 281 277 274 270 269 268 271 267 261 258 256 250 238 230 223 223 226 221 222 217 219 221 221 221 225
321 317 315 312 309 305 303 302 303 305 307 302 299 298 299 300 297 287 279 275 266 269 268 274 274 272 270 270 270 270 264 255 252 253 251 240 226 221 220 222 221 221 222 226 223 223 225
322 317 312 311 312 311 311 312 308 307 305 299 296 300 304 298 295 287 279 270 273 277 279 275 271 270 272 270 267 266 262 260 257 250 247 246 232 226 222 220 220 216 220 225 227 226 228
322 319 318 316 318 316 315 312 308 306 301 301 304 304 300 299 297 288 283 283 284 282 276 271 271 269 270 267 266 265 261 255 253 252 247 244 241 230 226 222 220 218 220 222 224 221 224
329 327 325 323 320 318 318 313 308 301 308 313 312 305 300 296 295 294 292 289 286 282 277 273 271 273 274 273 270 266 261 256 253 250 246 243 239 233 229 226 219 218 219 222 223 226 227
331 328 327 328 329 327 322 317 309 309 316 322 325 316 312 309 306 301 297 294 290 289 284 279 276 274 272 269 265 262 256 254 254 251 244 240 239 234 230 230 222 220 218 222 223 222 224
338 339 338 337 337 333 323 313 308 308 318 319 314 314 317 313 314 311 309 308 303 297 292 289 286 284 281 270 262 257 254 253 252 252 247 240 238 234 233 228 227 220 220 218 219 221 223
346 349 354 354 354 355 355 343 325 313 320 319 314 321 331 327 334 334 330 323 318 316 306 297 289 282 277 270 264 262 259 254 254 254 252 247 242 236 230 224 223 219 217 219 218 220 222
356 355 352 351 351 354 355 358 2 356 343 329 330 342 353 357 356 353 349 340 334 323 306 294 290 289 287 277 265 261 260 256 254 254 256 257 250 249 234 230 226 220 215 215 215 217 221
353 355 355 353 355 357 2 360 358 355 353 356 2 7 5 2 359 7 7 356 334 306 298 304 303 298 295 286 277 268 263 259 253 256 257 252 258 251 241 232 227 218 217 214 216 216 218
354 356 356 356 3 7 5 6 7 12 13 18 13 13 15 10 7 10 6 1 345 310 317 323 320 308 297 282 268 279 278 262 262 253 251 246 249 238 232 220 213 215 210 214 216 215 219
354 356 359 1 8 7 3 10 20 31 23 19 24 23 19 12 10 13 14 6 354 330 337 348 340 333 319 282 277 278 275 267 258 237 241 243 244 228 214 210 206 206 204 211 215 216 218
358 1 3 4 2 3 10 27 27 30 33 37 34 25 19 11 13 17 16 8 6 359 20 37 13 3 341 317 300 297 285 277 264 242 229 233 228 212 196 197 203 204 198 207 209 214 216
0 3 2 2 0 8 17 22 32 27 25 18 21 20 13 10 14 19 19 13 25 63 55 24 9 351 337 327 303 313 285 291 252 226 220 222 222 189 183 183 195 208 197 203 208 215 215
1 3 1 357 4 15 24 29 24 19 19 20 18 14 11 13 19 21 23 20 58 63 51 34 32 22 13 354 335 325 346 344 269 228 219 225 189 177 180 188 177 200 197 200 206 210 213
355 360 360 3 4 8 16 19 22 11 4 6 5 5 10 14 21 26 28 36 73 49 47 32 27 40 40 40 37 37 38 39 43 242 194 178 176 166 189 199 189 171 195 200 205 208 212
347 360 358 2 4 3 4 7 2 358 359 360 360 357 1 13 23 26 34 44 62 41 40 23 20 28 31 31 36 47 68 83 98 107 126 148 151 171 190 197 206 177 197 198 204 207 208
Height
5864 5863 5861 5860 5859 5857 5856 5855 5853 5852 5850 5849 5848 5847 5846 5845 5845 5845 5844 5844 5844 5843 5844 5845 5846 5847 5848 5849 5850 5851 5853 5854 5856 5858 5860 5863 5865 5866 5868 5870 5873 5876 5877 5880 5882 5885 5886
5863 5861 5860 5858 5857 5855 5853 5852 5850 5849 5847 5845 5844 5843 5842 5841 5840 5840 5839 5839 5839 5839 5839 5840 5840 5841 5843 5844 5845 5846 5848 5850 5852 5854 5856 5858 5859 5861 5863 5866 5869 5872 5875 5878 5881 5883 5885
5862 5860 5858 5856 5854 5852 5850 5848 5846 5844 5842 5841 5839 5838 5836 5835 5834 5834 5833 5832 5833 5834 5834 5835 5836 5836 5837 5838 5839 5840 5842 5844 5847 5849 5852 5855 5856 5859 5862 5863 5864 5869 5873 5876 5879 5881 5884
5861 5858 5856 5853 5851 5848 5845 5843 5841 5839 5836 5835 5832 5832 5831 5829 5828 5827 5826 5825 5825 5827 5828 5829 5829 5830 5832 5832 5833 5835 5836 5838 5841 5844 5847 5848 5851 5855 5858 5862 5862 5867 5871 5875 5878 5880 5883
5860 5857 5854 5850 5847 5843 5840 5838 5835 5833 5831 5829 5826 5824 5824 5822 5821 5819 5818 5818 5818 5819 5819 5820 5821 5823 5824 5826 5827 5828 5830 5832 5833 5837 5839 5842 5846 5850 5854 5858 5859 5862 5870 5873 5876 5879 5881
5855 5852 5848 5844 5841 5838 5834 5832 5829 5826 5824 5822 5819 5817 5815 5814 5813 5812 5810 5810 5809 5811 5812 5811 5811 5815 5815 5817 5819 5821 5822 5825 5828 5829 5832 5836 5842 5846 5851 5854 5857 5864 5869 5870 5874 5877 5880
5850 5847 5842 5838 5834 5831 5828 5825 5822 5819 5816 5813 5811 5808 5807 5805 5804 5803 5802 5801 5802 5801 5803 5802 5802 5802 5804 5806 5809 5812 5813 5816 5819 5822 5825 5829 5835 5844 5847 5849 5852 5855 5862 5865 5869 5873 5876
5845 5840 5836 5832 5828 5824 5820 5817 5813 5810 5807 5804 5801 5798 5796 5795 5793 5792 5790 5789 5790 5789 5791 5791 5791 5791 5790 5792 5796 5800 5802 5804 5808 5812 5815 5821 5828 5836 5835 5838 5842 5846 5854 5860 5861 5865 5871
5836 5831 5827 5824 5819 5815 5811 5807 5803 5799 5796 5794 5791 5788 5785 5782 5780 5779 5777 5776 5776 5774 5777 5779 5778 5778 5779 5780 5782 5785 5790 5791 5795 5799 5804 5810 5822 5823 5826 5830 5835 5840 5846 5852 5856 5857 5863
5828 5823 5818 5813 5809 5805 5800 5797 5793 5789 5785 5782 5779 5776 5773 5770 5770 5767 5765 5763 5762 5760 5762 5763 5765 5765 5764 5765 5769 5769 5773 5778 5781 5786 5790 5796 5808 5811 5815 5820 5825 5830 5842 5845 5848 5849 5855
5820 5814 5808 5804 5799 5794 5790 5786 5782 5779 5775 5771 5768 5765 5761 5758 5756 5753 5752 5750 5750 5748 5747 5750 5752 5752 5752 5753 5754 5757 5759 5762 5766 5770 5775 5785 5798 5800 5804 5816 5816 5828 5826 5833 5838 5839 5844
5812 5805 5799 5794 5789 5784 5779 5775 5771 5767 5762 5759 5756 5753 5750 5747 5744 5742 5740 5739 5739 5739 5736 5739 5740 5741 5741 5741 5742 5743 5746 5748 5751 5755 5759 5767 5779 5786 5791 5800 5805 5816 5815 5820 5822 5826 5821
5804 5797 5791 5785 5780 5774 5769 5766 5761 5757 5752 5747 5744 5742 5739 5735 5733 5730 5730 5730 5730 5728 5728 5729 5730 5729 5729 5730 5731 5733 5735 5736 5739 5742 5745 5752 5762 5771 5776 5786 5791 5800 5802 5806 5810 5807 5813
5796 5789 5782 5775 5769 5763 5759 5753 5749 5745 5741 5736 5733 5730 5727 5725 5722 5720 5721 5721 5720 5720 5718 5719 5719 5719 5719 5720 5720 5721 5722 5723 5726 5729 5732 5738 5748 5751 5761 5770 5777 5787 5792 5794 5799 5805 5814
5788 5780 5772 5765 5759 5753 5748 5743 5737 5733 5729 5726 5723 5721 5718 5715 5713 5712 5712 5711 5711 5710 5710 5708 5707 5707 5708 5707 5708 5708 5709 5710 5712 5715 5719 5724 5731 5738 5744 5751 5760 5775 5776 5792 5790 5801 5805
5777 5769 5763 5755 5749 5743 5737 5731 5727 5723 5721 5718 5715 5712 5709 5707 5706 5705 5705 5703 5701 5699 5698 5697 5696 5696 5694 5694 5693 5693 5693 5695 5696 5699 5703 5709 5717 5723 5729 5737 5748 5760 5771 5770 5774 5785 5790
5769 5759 5752 5745 5739 5732 5726 5721 5719 5716 5713 5710 5706 5703 5702 5702 5701 5699 5696 5693 5690 5686 5685 5684 5683 5682 5680 5678 5677 5677 5678 5679 5680 5683 5688 5693 5701 5711 5716 5721 5736 5746 5747 5755 5769 5775 5782
5762 5753 5745 5737 5731 5725 5720 5715 5713 5710 5707 5703 5700 5699 5698 5697 5695 5690 5686 5683 5680 5677 5674 5670 5668 5665 5663 5662 5660 5661 5663 5663 5665 5666 5671 5677 5684 5695 5703 5710 5719 5725 5733 5746 5750 5764 5770
5756 5747 5740 5732 5725 5718 5713 5707 5705 5702 5702 5700 5697 5695 5694 5690 5686 5682 5677 5673 5669 5666 5661 5657 5653 5651 5649 5647 5645 5645 5646 5648 5650 5651 5655 5662 5667 5679 5690 5698 5704 5709 5717 5729 5741 5750 5755
5752 5745 5738 5731 5724 5716 5709 5702 5697 5696 5696 5695 5693 5690 5688 5685 5681 5676 5670 5664 5658 5653 5648 5643 5639 5635 5631 5630 5631 5632 5634 5636 5637 5638 5642 5647 5654 5661 5672 5677 5679 5691 5702 5715 5727 5735 5749
5752 5745 5738 5730 5723 5716 5708 5702 5697 5695 5693 5692 5688 5686 5683 5680 5676 5670 5664 5657 5651 5645 5639 5631 5625 5621 5620 5619 5620 5621 5622 5623 5626 5627 5629 5634 5639 5640 5652 5662 5668 5680 5688 5700 5711 5726 5734
5753 5744 5737 5729 5722 5715 5708 5702 5698 5694 5692 5689 5687 5684 5681 5677 5672 5667 5662 5655 5647 5638 5629 5620 5615 5612 5611 5610 5612 5612 5612 5614 5615 5618 5619 5623 5625 5626 5634 5647 5657 5668 5679 5689 5702 5715 5722
5751 5744 5736 5728 5721 5714 5709 5704 5699 5695 5692 5689 5686 5683 5680 5676 5671 5666 5659 5650 5639 5627 5621 5614 5610 5608 5605 5605 5604 5604 5604 5605 5606 5606 5609 5614 5616 5618 5624 5634 5643 5652 5668 5682 5693 5703 5717
5751 5743 5736 5729 5722 5716 5710 5704 5700 5697 5694 5691 5688 5685 5681 5676 5670 5663 5652 5641 5630 5621 5615 5610 5607 5603 5601 5599 5598 5596 5593 5590 5590 5594 5598 5603 5606 5609 5620 5623 5634 5650 5662 5674 5682 5697 5709
5751 5743 5737 5731 5725 5718 5713 5707 5703 5700 5697 5693 5689 5686 5681 5676 5669 5659 5648 5636 5624 5617 5613 5608 5604 5600 5598 5594 5590 5586 5582 5579 5580 5582 5588 5593 5596 5603 5611 5619 5633 5641 5651 5659 5672 5687 5701
5751 5744 5737 5733 5726 5720 5715 5710 5706 5703 5699 5695 5691 5685 5681 5676 5667 5656 5646 5634 5621 5617 5613 5611 5606 5600 5594 5589 5584 5580 5576 5574 5573 5575 5580 5585 5591 5597 5603 5614 5629 5636 5647 5657 5670 5683 5696
5752 5745 5738 5734 5728 5723 5718 5713 5709 5706 5703 5698 5693 5687 5681 5674 5665 5657 5646 5633 5623 5622 5616 5614 5607 5601 5594 5588 5582 5577 5573 5570 5569 5570 5575 5581 5586 5595 5600 5608 5620 5631 5643 5655 5666 5679 5690
5752 5746 5739 5735 5730 5725 5720 5716 5712 5708 5704 5699 5694 5688 5681 5674 5666 5659 5649 5637 5632 5629 5622 5617 5611 5605 5599 5591 5585 5579 5574 5571 5570 5570 5572 5578 5585 5595 5603 5609 5617 5625 5639 5650 5661 5672 5685
5751 5745 5739 5735 5731 5726 5722 5717 5713 5709 5704 5699 5694 5687 5681 5674 5667 5662 5655 5647 5640 5635 5629 5620 5615 5610 5605 5598 5591 5585 5579 5577 5575 5578 5582 5588 5594 5599 5605 5611 5614 5624 5635 5646 5657 5669 5682